Theta_e
321 322 320 319 318 318 318 320 323 328 331 331 333 335 336 337 336 336 336 334 334 331 332 330 324 325 326 328 330 331 333 333
322 322 320 319 318 318 319 320 322 327 329 329 331 333 336 337 336 336 336 335 334 332 331 331 326 323 324 327 329 330 332 331
325 323 321 320 319 319 319 320 321 326 328 329 331 333 335 337 336 336 336 334 334 332 330 330 326 324 326 326 328 329 332 331
332 326 322 321 320 320 320 320 320 323 326 328 330 331 333 335 336 336 336 334 333 333 330 327 326 325 328 328 327 329 330 329
334 333 327 322 321 321 321 320 320 322 326 327 329 330 331 333 334 336 336 334 333 333 332 327 326 324 327 328 329 326 328 330
336 337 336 331 323 321 321 321 321 321 324 325 326 328 330 330 331 333 334 334 333 332 330 327 327 325 325 325 328 327 327 328
339 338 338 337 328 323 322 322 322 321 323 324 322 324 328 330 330 330 332 333 331 331 329 328 327 327 326 326 327 328 326 328
332 337 339 340 337 326 323 323 323 323 322 322 320 323 328 331 331 331 331 332 332 331 328 327 327 326 327 327 326 327 327 328
324 327 334 341 340 332 326 324 326 328 325 325 322 325 328 331 332 333 331 331 331 331 329 328 327 328 327 326 326 325 326 328
321 322 329 335 339 338 331 325 325 329 331 328 325 326 330 331 332 332 331 330 330 330 330 328 328 326 326 326 325 326 326 327
318 318 326 330 338 337 334 328 326 330 334 328 328 328 329 330 331 332 331 330 329 329 329 329 327 326 325 326 326 326 326 326
317 318 319 326 332 337 336 332 332 335 333 328 328 327 325 330 331 332 332 331 330 329 329 328 327 326 326 325 325 326 327 326
317 318 320 324 334 335 337 335 334 337 333 328 328 326 325 329 329 331 332 331 330 330 329 329 327 326 326 326 326 326 327 327
317 318 319 321 327 330 333 337 336 334 329 328 326 326 325 327 327 330 330 330 330 330 329 328 328 327 325 325 325 324 326 326
317 318 318 320 321 333 333 335 334 334 333 330 325 326 323 328 328 328 329 329 328 329 329 328 327 325 325 324 323 321 324 323
317 319 319 320 324 332 330 335 334 332 333 330 327 330 333 330 329 328 329 327 326 327 327 327 327 326 325 325 324 322 322 321
319 320 321 323 326 330 330 336 334 332 333 330 328 326 330 331 328 328 327 326 326 326 326 326 326 326 325 324 323 322 321 321
325 322 323 325 331 333 336 334 334 334 333 331 328 325 323 330 329 327 325 325 325 326 326 326 325 325 326 324 323 321 321 320
335 332 332 329 334 334 335 334 335 335 334 330 328 324 324 324 323 324 325 325 325 326 326 327 326 325 325 325 322 322 322 320
335 334 331 331 333 333 332 335 336 335 331 329 327 324 324 323 325 325 324 325 325 324 325 325 325 325 326 325 323 322 321 321
Wind_Speed
21 18 16 15 14 14 14 14 15 17 18 18 18 19 19 18 18 19 18 19 18 18 19 17 19 17 15 14 17 16 16 19
22 20 18 17 15 14 14 14 15 17 18 18 18 19 20 19 20 20 19 20 19 18 17 20 18 17 17 19 18 15 16 18
23 23 22 19 17 16 16 15 15 16 17 18 18 20 20 20 21 20 20 20 20 21 19 20 20 18 18 17 20 18 17 18
24 26 25 23 21 20 18 17 17 17 17 18 18 18 18 20 20 20 22 22 23 24 21 19 20 21 22 24 25 20 18 19
25 24 25 26 25 24 22 20 18 18 18 18 18 18 19 20 20 21 23 21 26 27 23 22 23 24 24 24 24 22 19 21
27 27 24 28 30 27 25 23 20 19 20 19 19 19 20 21 20 22 23 23 28 27 25 24 25 25 22 24 27 24 21 22
32 31 29 27 32 30 28 25 23 19 20 20 19 20 21 21 21 23 25 27 28 29 28 25 27 23 24 28 29 25 22 23
33 33 33 32 29 32 30 28 24 22 20 21 19 19 20 20 21 23 24 28 29 32 31 26 27 26 26 26 27 26 26 26
35 31 34 35 31 29 32 31 27 24 22 21 20 19 19 20 20 22 23 26 32 35 35 26 24 24 26 26 29 29 28 27
34 33 34 36 34 31 30 33 31 26 23 21 20 19 20 21 22 23 23 24 28 32 36 29 26 28 25 24 29 31 30 28
38 34 36 37 36 35 34 33 33 29 25 23 23 22 22 23 24 23 24 24 26 29 31 31 29 28 28 26 24 32 33 29
45 38 35 39 39 39 39 33 33 32 28 25 26 25 24 24 24 25 27 26 25 24 23 26 28 28 28 26 29 35 33 32
46 41 35 38 44 41 40 39 38 36 31 29 28 26 26 25 26 27 28 27 26 23 22 28 30 29 24 22 30 34 33 32
40 47 41 40 44 45 45 45 41 36 32 30 28 26 26 25 25 27 26 27 26 25 25 28 29 29 27 18 15 27 33 35
35 41 45 43 41 48 44 44 37 31 32 30 28 28 24 25 24 24 24 24 25 26 27 29 28 29 28 18 12 8 33 34
37 36 44 45 46 49 47 48 40 38 36 32 28 26 26 25 26 24 24 25 24 24 26 28 28 29 30 31 26 27 27 21
30 31 43 47 47 48 49 45 38 35 33 29 25 25 27 25 26 26 25 25 26 28 30 32 32 31 33 34 30 31 32 31
21 33 42 47 48 51 46 43 38 35 31 28 26 22 25 27 24 27 28 29 31 32 35 35 33 32 33 38 43 39 42 34
25 33 41 45 48 45 44 40 36 33 30 29 25 23 24 23 21 25 30 31 33 35 33 34 34 33 36 41 46 38 36 35
22 30 33 36 41 42 37 34 34 30 27 26 23 21 19 17 21 26 26 27 28 28 28 33 36 37 40 45 47 42 38 42
Wind_Direction
187 190 190 193 198 193 195 197 199 196 195 194 194 196 196 198 197 204 199 196 194 190 187 191 176 173 178 185 186 192 184 184
197 199 200 200 201 199 200 199 204 203 199 196 196 196 196 198 201 208 204 200 196 191 180 193 190 191 190 180 190 193 186 181
203 206 207 205 205 204 203 200 208 205 205 204 200 198 197 198 205 210 208 201 199 190 183 180 184 188 190 189 192 192 195 190
215 212 212 209 208 209 209 205 209 209 209 209 208 204 204 205 207 213 215 205 201 199 200 197 188 191 185 191 193 194 193 193
228 222 222 218 215 214 211 212 211 211 207 209 211 210 209 209 210 211 221 207 200 206 212 209 192 194 193 193 197 195 194 191
235 238 237 231 224 219 218 214 213 216 210 210 215 216 216 215 216 219 219 212 206 205 204 202 195 193 202 205 202 198 190 187
229 239 238 241 228 223 220 216 215 219 216 213 220 223 224 220 221 224 223 222 220 207 200 201 203 206 204 204 207 203 199 194
231 231 238 239 233 225 221 219 214 212 217 213 220 223 223 222 224 226 226 226 222 206 208 204 216 221 218 206 209 209 207 202
231 234 238 236 234 229 223 223 214 212 215 211 218 221 220 221 223 225 225 226 224 218 213 219 215 214 202 215 214 207 214 200
239 234 230 233 232 229 224 223 221 216 216 215 220 223 224 223 224 226 224 227 233 233 221 222 213 208 212 206 222 213 216 211
244 240 225 231 225 232 222 224 225 222 220 222 221 222 223 221 225 225 225 230 233 239 231 223 208 213 209 217 230 218 216 211
243 237 233 226 229 227 217 222 226 222 224 227 225 224 224 220 220 222 225 228 228 229 226 209 213 213 216 235 233 217 215 213
239 236 225 220 224 224 218 217 222 221 227 228 222 220 220 222 219 219 224 225 226 224 220 216 218 220 224 241 221 218 208 207
248 236 226 219 222 224 225 217 218 225 222 220 218 217 220 219 216 215 219 220 220 223 217 213 219 218 219 212 178 197 196 190
256 240 231 221 221 220 221 225 220 214 216 216 216 215 215 218 219 218 219 220 222 217 215 214 218 216 220 199 160 192 185 191
255 248 230 221 218 216 221 222 210 216 217 212 212 212 215 219 222 220 219 222 226 224 222 222 221 221 214 214 207 201 177 183
247 235 219 215 216 215 219 216 216 220 211 211 217 218 218 215 216 216 217 227 230 230 231 227 231 227 223 210 197 176 181 178
221 223 216 214 214 214 215 216 217 215 208 214 211 218 216 215 221 216 220 230 235 236 236 237 234 233 227 217 200 189 192 196
201 212 212 213 213 214 213 218 221 217 211 211 209 211 212 211 213 222 228 233 241 244 240 240 236 234 224 208 196 208 213 206
204 203 213 220 211 214 218 216 219 217 212 211 212 213 219 210 214 227 226 235 234 240 240 242 239 231 228 212 212 205 202 205